Mackinac Island, MI

2:16 PM EDT on May 22, 2018 (GMT -0400)
Mackinac Island

Weather History for KMCD - September, 2013

Change the Weather History Date:

Tuesday, September 10, 2013

  Actual Average Record
Temperature  
Mean Temperature 70 °F -  
Max Temperature 77 °F 67 °F 78 °F (1982)
Min Temperature 64 °F 54 °F 45 °F (1977)
Cooling Degree Days 6    
Growing Degree Days 20 (Base 50)    
Moisture  
Dew Point 66 °F    
Average Humidity 87    
Maximum Humidity 98    
Minimum Humidity 70    
Precipitation  
Precipitation 0.23 in - - ()
Sea Level Pressure  
Sea Level Pressure 29.81 in    
Wind  
Wind Speed 9 mph (SW)    
Max Wind Speed 17 mph    
Max Gust Speed 26 mph    
Visibility 9 miles    
Events Rain    
Averages and records for this station are not official NWS values.
T = Trace of Precipitation, MM = Missing Value Source: NWS Daily Summary

Daily Weather History Graph

Daily Weather History Graph

Search for Another Location

Airport or City:

Astronomy

Sep. 10, 2013 Rise Set
Actual Time 7:10 AM EDT 7:59 PM EDT
Civil Twilight 6:40 AM EDT 8:29 PM EDT
Nautical Twilight 6:04 AM EDT 9:05 PM EDT
Astronomical Twilight 5:26 AM EDT 9:42 PM EDT
Moon 12:54 PM EDT (9/10) 10:42 PM EDT (9/10)
Length of Visible Light 13h 48m
Length of Day
12h 48m
Waxing Crescent, 28% of the Moon is Illuminated
Sep 10
Waxing Crescent
Sep 12
First Quarter
Sep 19
Full
Sep 26
Last Quarter
Oct 4
New

Hourly Weather History & Observations

Time (EDT) Temp. Dew Point Humidity Pressure Visibility Wind Dir Wind Speed Gust Speed Precip Events Conditions
12:16 AM 67.8 °F 65.5 °F 92% 29.73 in 10.0 mi SE 6.9 mph - N/A   Overcast
12:36 AM 66.7 °F 64.4 °F 92% 29.74 in 10.0 mi Calm Calm - N/A   Overcast
12:56 AM 66.6 °F 64.6 °F 93% 29.73 in 10.0 mi SE 3.5 mph - N/A   Overcast
1:16 AM 66.7 °F 65.1 °F 95% 29.73 in 10.0 mi SSE 6.9 mph - N/A   Overcast
1:36 AM 64.2 °F 62.8 °F 95% 29.77 in 10.0 mi NNE 15.0 mph 24.2 mph N/A   Overcast
1:56 AM 64.6 °F 63.0 °F 94% 29.77 in 10.0 mi NE 10.4 mph - N/A   Overcast
2:16 AM 65.3 °F 63.5 °F 94% 29.76 in 10.0 mi ENE 10.4 mph - N/A   Overcast
2:36 AM 65.5 °F 63.7 °F 94% 29.74 in 10.0 mi East 10.4 mph - N/A   Overcast
2:56 AM 66.4 °F 64.4 °F 93% 29.74 in 10.0 mi ESE 9.2 mph - N/A   Overcast
3:16 AM 67.5 °F 64.8 °F 91% 29.74 in 10.0 mi ESE 9.2 mph - N/A   Overcast
3:36 AM 67.5 °F 65.1 °F 92% 29.74 in 10.0 mi SE 5.8 mph - N/A   Overcast
3:56 AM 67.1 °F 64.9 °F 93% 29.75 in 10.0 mi SE 5.8 mph - N/A   Overcast
4:16 AM 67.5 °F 65.3 °F 93% 29.74 in 10.0 mi SE 6.9 mph - N/A   Overcast
4:36 AM 67.5 °F 65.3 °F 93% 29.75 in 10.0 mi SSE 6.9 mph - N/A   Overcast
4:56 AM 66.6 °F 64.8 °F 94% 29.74 in 10.0 mi SSE 12.7 mph 16.1 mph N/A   Overcast
5:16 AM 66.0 °F 64.6 °F 95% 29.75 in 10.0 mi SSE 11.5 mph - N/A   Overcast
5:36 AM 66.2 °F 64.8 °F 95% 29.75 in 10.0 mi South 10.4 mph - N/A   Overcast
5:56 AM 65.7 °F 64.6 °F 96% 29.75 in 7.0 mi South 8.1 mph - N/A   Scattered Clouds
6:15 AM 65.8 °F 65.3 °F 98% 29.75 in 7.0 mi South 8.1 mph - N/A   Clear
6:36 AM 66.0 °F 65.3 °F 98% 29.75 in 5.0 mi South 5.8 mph - N/A   Clear
6:56 AM 66.9 °F 66.2 °F 98% 29.75 in 5.0 mi SSW 9.2 mph - N/A   Clear
7:15 AM 67.5 °F 66.7 °F 98% 29.75 in 4.0 mi SSW 8.1 mph - N/A   Clear
7:36 AM 68.5 °F 67.6 °F 97% 29.76 in 4.0 mi SW 8.1 mph - N/A   Clear
7:56 AM 69.8 °F 68.5 °F 96% 29.76 in 4.0 mi SSW 8.1 mph - N/A   Clear
8:15 AM 71.2 °F 69.6 °F 95% 29.77 in 5.0 mi SW 9.2 mph - N/A   Clear
8:36 AM 71.8 °F 69.3 °F 92% 29.78 in 5.0 mi SW 9.2 mph - N/A   Clear
8:56 AM 71.2 °F 68.7 °F 92% 29.78 in 5.0 mi WSW 10.4 mph 18.4 mph N/A   Clear
9:16 AM 71.6 °F 68.5 °F 90% 29.78 in 7.0 mi WSW 10.4 mph 19.6 mph N/A   Clear
9:36 AM 72.5 °F 68.0 °F 86% 29.78 in 10.0 mi WSW 11.5 mph 19.6 mph N/A   Clear
9:56 AM 72.7 °F 67.5 °F 84% 29.79 in 10.0 mi WSW 13.8 mph 21.9 mph N/A   Clear
10:16 AM 74.5 °F 67.8 °F 80% 29.80 in 10.0 mi West 15.0 mph 24.2 mph N/A   Scattered Clouds
10:36 AM 74.8 °F 67.5 °F 78% 29.80 in 10.0 mi WSW 11.5 mph 21.9 mph N/A   Scattered Clouds
10:56 AM 73.6 °F 67.1 °F 80% 29.81 in 10.0 mi WSW 10.4 mph 20.7 mph N/A   Mostly Cloudy
11:16 AM 74.3 °F 67.3 °F 79% 29.81 in 10.0 mi WSW 15.0 mph 23.0 mph N/A   Overcast
11:36 AM 74.3 °F 67.1 °F 78% 29.82 in 10.0 mi WSW 17.3 mph 23.0 mph N/A   Overcast
11:55 AM 73.8 °F 67.3 °F 80% 29.82 in 10.0 mi WSW 12.7 mph 25.3 mph N/A   Overcast
12:16 PM 73.6 °F 67.3 °F 81% 29.83 in 10.0 mi WSW 16.1 mph 21.9 mph N/A   Overcast
12:36 PM 74.5 °F 67.8 °F 80% 29.83 in 10.0 mi WSW 11.5 mph 19.6 mph N/A   Mostly Cloudy
12:56 PM 73.6 °F 67.6 °F 82% 29.83 in 10.0 mi WSW 10.4 mph 20.7 mph N/A   Scattered Clouds
1:16 PM 73.6 °F 67.5 °F 81% 29.83 in 10.0 mi WSW 10.4 mph 21.9 mph N/A   Clear
1:36 PM 74.8 °F 67.5 °F 78% 29.83 in 10.0 mi WSW 10.4 mph 19.6 mph N/A   Clear
1:56 PM 75.2 °F 67.6 °F 77% 29.83 in 10.0 mi WSW 12.7 mph 20.7 mph N/A   Clear
2:16 PM 76.5 °F 66.7 °F 72% 29.82 in 10.0 mi WSW 10.4 mph 21.9 mph N/A   Clear
2:36 PM 77.0 °F 66.7 °F 70% 29.82 in 10.0 mi WSW 13.8 mph 21.9 mph N/A   Clear
2:56 PM 77.0 °F 66.9 °F 71% 29.82 in 10.0 mi WSW 16.1 mph 24.2 mph N/A   Clear
3:16 PM 77.5 °F 66.9 °F 70% 29.82 in 10.0 mi WSW 15.0 mph 25.3 mph N/A   Clear
3:36 PM 77.0 °F 67.1 °F 71% 29.83 in 10.0 mi WSW 16.1 mph 23.0 mph N/A   Clear
3:55 PM 76.3 °F 66.9 °F 73% 29.83 in 10.0 mi WSW 16.1 mph 25.3 mph N/A   Clear
4:16 PM 76.1 °F 67.1 °F 74% 29.84 in 10.0 mi WSW 13.8 mph 26.5 mph N/A   Clear
4:36 PM 75.7 °F 67.3 °F 75% 29.85 in 10.0 mi WSW 12.7 mph 23.0 mph N/A   Clear
4:55 PM 74.8 °F 67.1 °F 77% 29.84 in 10.0 mi SW 16.1 mph 20.7 mph N/A   Clear
5:16 PM 74.1 °F 67.1 °F 79% 29.84 in 10.0 mi WSW 11.5 mph 19.6 mph N/A   Clear
5:36 PM 75.4 °F 67.3 °F 76% 29.84 in 10.0 mi SW 10.4 mph 16.1 mph N/A   Clear
5:56 PM 74.7 °F 66.9 °F 77% 29.83 in 10.0 mi SW 9.2 mph 17.3 mph N/A   Clear
6:16 PM 73.4 °F 66.2 °F 78% 29.85 in 10.0 mi WSW 12.7 mph 23.0 mph N/A   Scattered Clouds
6:36 PM 73.4 °F 66.4 °F 79% 29.86 in 10.0 mi WSW 13.8 mph 20.7 mph N/A   Overcast
6:56 PM 73.4 °F 66.6 °F 79% 29.86 in 10.0 mi WSW 11.5 mph 19.6 mph N/A   Overcast
7:16 PM 72.5 °F 66.7 °F 82% 29.88 in 10.0 mi NW 12.7 mph 16.1 mph N/A   Overcast
7:36 PM 71.6 °F 66.7 °F 85% 29.87 in 10.0 mi North 4.6 mph - N/A   Overcast
7:56 PM 71.2 °F 67.1 °F 87% 29.89 in 10.0 mi North 5.8 mph - N/A   Overcast
8:16 PM 70.3 °F 66.2 °F 87% 29.88 in 10.0 mi North 6.9 mph - N/A   Overcast
8:35 PM 70.0 °F 67.1 °F 91% 29.88 in 10.0 mi North 4.6 mph - N/A   Overcast
8:56 PM 69.8 °F 67.5 °F 92% 29.90 in 10.0 mi NNW 3.5 mph - N/A   Overcast
9:16 PM 69.8 °F 67.5 °F 92% 29.91 in 10.0 mi NW 4.6 mph - N/A Rain Rain
9:35 PM 68.9 °F 67.5 °F 95% 29.92 in 7.0 mi WNW 5.8 mph - 0.03 in Rain Rain
9:56 PM 67.5 °F 66.2 °F 96% 29.92 in 5.0 mi West 6.9 mph - 0.15 in Rain Rain
10:16 PM 67.1 °F 65.8 °F 96% 29.92 in 10.0 mi WSW 8.1 mph - 0.03 in Rain Light Rain
10:35 PM 66.4 °F 65.3 °F 96% 29.92 in 10.0 mi West 6.9 mph - 0.04 in Rain Light Rain
10:56 PM 66.4 °F 65.3 °F 96% 29.93 in 10.0 mi WSW 8.1 mph - 0.05 in Rain Light Rain
11:16 PM 65.8 °F 65.1 °F 98% 29.91 in 10.0 mi SW 5.8 mph - 0.01 in Rain Light Rain
11:35 PM 65.7 °F 65.1 °F 98% 29.92 in 10.0 mi SW 5.8 mph - 0.01 in Rain Light Rain
11:56 PM 65.7 °F 64.8 °F 97% 29.91 in 10.0 mi WSW 4.6 mph - 0.03 in Rain Rain